Simultaneous Nadir Overpasses (SNOs) Predictions

Prediction of SNOs between GOES-16 and TERRA Satellite Orbit:

Table of predicted SNOs for the next 14.0 days since TLE Epoch: 1/28/2023
Index Date Time (GOES-16) GOES-16 Lat,Lon TERRA Lat,Lon Distance(km) Time Diff (sec)
1 01/29/2023 15:03:56 0.01, -75.20 -0.32, -73.62 179.26 80
2 01/30/2023 03:27:04 -0.02, -75.19 -0.72, -78.59 386.77 80
3 02/01/2023 03:08:33 -0.01, -75.20 0.11, -74.76 49.75 80
4 02/03/2023 02:52:41 -0.01, -75.21 0.90, -70.93 486.78 80
5 02/03/2023 15:15:38 0.01, -75.22 0.15, -75.86 71.95 80
6 02/05/2023 14:57:06 0.02, -75.25 -0.66, -72.02 366.49 80
7 02/06/2023 03:20:14 -0.03, -75.24 -0.37, -77.00 198.86 80
8 02/08/2023 03:01:41 -0.03, -75.27 0.41, -73.15 240.56 80
9 02/08/2023 15:21:59 0.03, -75.29 0.63, -78.09 317.85 80
10 02/10/2023 15:08:46 0.03, -75.33 -0.18, -74.25 122.42 80
